Content
SEND FEEDBACK

Daily
Averages
Monthly
Summary
United States of America

ANOKA, MINNESOTA


Home > North America > United States > Minnesota
Elevation: 920 feet     Latitude: 45 20N     Longitude: 093 22W

WEATHER
 
SELECT A DAY
Number of Records: 209,125;   Date Range: 8/1/96 - 7/27/14
 
SHARE

PRINT THIS DATA

[ ← Previous Day ]
WEATHER ALMANAC - JANUARY 31, 2013
[ Next Day → ]
[ °C ]   °F
Weather ElementAverageHighLow
Temperature3 °F8.6 °F (12:34 am)-5.8 °F (10:14 pm)
Dewpoint-4.9 °F1.4 °F (12:34 am)-14.8 °F (10:34 pm)
Humidity69.9 %79 % (2:34 am)52 % (7:45 pm)
Barometer29.96 in30.23 in (11:14 pm)29.74 in (12:34 am)
Wind Speed15.4 mph20.7 mph (5:45 pm)
Wind Gust27.6 mph (1:55 pm)
Weather ElementAverage
Visibility8.9 mi
Wind DirectionWNW (289.5 °)

Weather ElementTotal
Precipitation---
Heating Degree Days63.6 (Base 65)
Averaged from 44 records on January 31, 2013
WEATHER CONDITIONS BREAKOUT
WIND DIRECTION BREAKOUT
WEATHER BY HOUR - JANUARY 31, 2013
[ °C ]   °F
Local TimeTemperatureDewpointHumidityBarometerVisibilityWind DirectionWind SpeedGust SpeedPrecipitationEventsConditions
12:34 AM8.6 °F1.4 °F73 %29.74 in10.0 miWest (280°)13.8 mphScattered Clouds
12:54 AM8.6 °F1.4 °F73 %29.74 in10.0 miWNW (290°)16.1 mphMostly Cloudy
1:14 AM8.6 °F1.4 °F73 %29.75 in7.0 miWNW (290°)13.8 mph18.4 mphOvercast
1:34 AM8.6 °F1.4 °F73 %29.76 in7.0 miWNW (290°)15.0 mphOvercast
1:54 AM8.6 °F1.4 °F73 %29.76 in7.0 miWNW (290°)13.8 mphOvercast
2:14 AM8.6 °F1.4 °F73 %29.77 in4.0 miWNW (290°)15.0 mph20.7 mphSnowLight Snow
2:34 AM6.8 °F1.4 °F79 %29.77 in10.0 miWNW (290°)15.0 mph19.6 mphOvercast
2:54 AM6.8 °F1.4 °F79 %29.77 in7.0 miWNW (290°)15.0 mphOvercast
3:13 AM6.8 °F1.4 °F79 %29.77 in10.0 miWest (280°)16.1 mphOvercast
3:34 AM6.8 °F-0.4 °F72 %29.77 in10.0 miWest (280°)12.7 mphOvercast
3:54 AM6.8 °F-0.4 °F72 %29.78 in10.0 miWNW (290°)16.1 mph23.0 mphOvercast
4:14 AM6.8 °F-0.4 °F72 %29.79 in10.0 miWNW (290°)13.8 mph20.7 mphOvercast
4:34 AM6.8 °F-0.4 °F72 %29.79 in10.0 miWNW (290°)16.1 mph20.7 mphOvercast
4:54 AM6.8 °F-0.4 °F72 %29.80 in10.0 miWNW (290°)13.8 mphOvercast
5:14 AM5.0 °F-0.4 °F78 %29.81 in10.0 miWNW (290°)11.5 mphOvercast
5:34 AM5.0 °F-2.2 °F72 %29.81 in10.0 miWNW (290°)17.3 mph20.7 mphOvercast
5:54 AM5.0 °F-2.2 °F72 %29.82 in10.0 miWNW (290°)13.8 mph21.9 mphOvercast
6:14 AM5.0 °F-0.4 °F78 %29.83 in7.0 miWNW (290°)13.8 mph18.4 mphOvercast
6:34 AM5.0 °F-2.2 °F72 %29.84 in10.0 miWNW (300°)12.7 mphOvercast
6:50 AM5.0 °F-0.4 °F78 %29.85 in10.0 miWNW (300°)11.5 mph17.3 mphOvercast
6:54 AM5.0 °F-2.2 °F72 %29.85 in7.0 miWNW (300°)18.4 mphSnowLight Snow
7:45 AM3.2 °F-2.2 °F78 %29.88 in10.0 miWest (280°)13.8 mphMostly Cloudy
8:45 AM1.4 °F-5.8 °F72 %29.91 in10.0 miNW (310°)15.0 mph21.9 mphScattered Clouds
9:42 AM1.4 °F-5.8 °F72 %29.94 in5.0 miWNW (290°)18.4 mph24.2 mphSnowLight Snow
10:45 AM1.4 °F-5.8 °F72 %29.98 in5.0 miWNW (300°)19.6 mph24.2 mphHaze
11:50 AM3.2 °F-5.8 °F66 %29.99 in5.0 miWNW (300°)16.1 mph23.0 mphHaze
12:45 PM3.2 °F-5.8 °F66 %30.00 in5.0 miNW (310°)19.6 mph24.2 mphHaze
1:55 PM3.2 °F-5.8 °F66 %30.02 in7.0 miWNW (290°)19.6 mph27.6 mphMostly Cloudy
2:45 PM3.2 °F-5.8 °F66 %30.04 in7.0 miWNW (290°)18.4 mph26.5 mphMostly Cloudy
3:45 PM5.0 °F-5.8 °F61 %30.06 in10.0 miWNW (290°)17.3 mph23.0 mphMostly Cloudy
4:45 PM3.2 °F-7.6 °F61 %30.09 in10.0 miWest (280°)17.3 mph26.5 mphScattered Clouds
5:45 PM1.4 °F-7.6 °F66 %30.12 in10.0 miWNW (290°)20.7 mph26.5 mphScattered Clouds
6:45 PM1.4 °F-9.4 °F61 %30.15 in10.0 miWNW (290°)20.7 mph25.3 mphClear
7:45 PM5.0 °F-9.4 °F52 %30.17 in10.0 miWest (280°)13.8 mphClear
8:45 PM-2.2 °F-11.2 °F66 %30.19 in10.0 miWest (280°)13.8 mph21.9 mphClear
9:14 PM-2.2 °F-11.2 °F66 %30.20 in10.0 miWNW (290°)15.0 mphClear
9:34 PM-4.0 °F-13.0 °F65 %30.20 in10.0 miWNW (290°)15.0 mph20.7 mphClear
9:54 PM-4.0 °F-13.0 °F65 %30.21 in10.0 miWest (280°)12.7 mphClear
10:14 PM-5.8 °F-13.0 °F71 %30.21 in10.0 miWest (280°)12.7 mph16.1 mphClear
10:34 PM-5.8 °F-14.8 °F65 %30.22 in10.0 miWNW (290°)17.3 mph23.0 mphClear
10:54 PM-5.8 °F-14.8 °F65 %30.22 in10.0 miWNW (290°)15.0 mph21.9 mphClear
11:14 PM-5.8 °F-14.8 °F65 %30.23 in10.0 miWest (280°)13.8 mphClear
11:34 PM-5.8 °F-14.8 °F65 %30.23 in10.0 miWest (280°)13.8 mph18.4 mphClear
11:54 PM-5.8 °F-14.8 °F65 %30.23 in10.0 miWNW (290°)11.5 mph18.4 mphClear
Hourly data recorded from KANE, located miles away from Anoka, Minnesota







STORIES FROM OUR PARTNERS